Home   Weather   Dundee   Past weeks
Flag for United Kingdom

Past Weather in Dundee, Scotland, United Kingdom — Yesterday and Last 2 Weeks

Now
64 °F

Sunny.


Feels Like: 64 °F
Forecast: 62 / 48 °F
Wind: 8 mph from East

Location: Dundee / Riverside

Current Time: Sep 20, 2019 at 3:11:06 pm

Latest Report: Sep 20, 2019 at 2:20 pm


Visibility: 10 mi

Pressure: 30.24 "Hg

Humidity: 73%

Dew Point: 55 °F

Location of DundeeLocation

Past Weather in Dundee — Graph

°F

Dundee Temperature Yesterday

Maximum temperature yesterday: 66 °F (at 1:50 pm)
Minimum temperature yesterday: 50 °F (at 6:20 am)
Average temperature yesterday: 59 °F

High & Low Weather Summary for the Past Weeks

 TemperatureHumidityPressure
High66 °F (Sep 6, 3:50 pm)100% (Sep 9, 7:50 am)30.54 "Hg (Sep 9, 7:50 am)
Low46 °F (Sep 17, 5:50 am)48% (Sep 17, 12:50 pm)29.62 "Hg (Sep 11, 6:20 am)
Average58 °F76%30.13 "Hg
* Reported Sep 5 1:20 pm — Sep 20 1:50 pm, Dundee. Weather by CustomWeather, © 2019

Note: Actual official high and low records may vary slightly from our data, if they occured in-between our weather recording intervals... More about our weather records

Advertising

Dundee Weather History for the Previous 24 Hours

Scroll right to see more
 ConditionsComfort  
Time TempWeatherWind HumidityBarometerVisibility
1:50 pm
Fri, Sep 20
64 °FSunny.No wind68%30.24 "Hg10 mi
1:20 pm64 °FSunny.No wind68%30.24 "Hg10 mi
12:50 pm61 °FSunny.No wind72%30.27 "Hg10 mi
12:20 pm61 °FSunny.2 mph77%30.27 "Hg10 mi
11:20 am59 °FSunny.No wind72%30.27 "Hg10 mi
10:50 am57 °FSunny.3 mph82%30.30 "Hg10 mi
10:20 am55 °FSunny.5 mph82%30.30 "Hg10 mi
9:50 am54 °FSunny.5 mph82%30.30 "Hg10 mi
9:20 am54 °FSunny.3 mph82%30.30 "Hg10 mi
8:50 am52 °FSunny.2 mph88%30.30 "Hg10 mi
8:20 am48 °FSunny.5 mph94%30.30 "Hg10 mi
7:50 am48 °FSunny.5 mph94%30.30 "Hg10 mi
6:50 am46 °FClear.3 mph100%30.30 "Hg10 mi
6:20 am46 °FClear.2 mph93%30.30 "Hg10 mi
8:20 pm
Thu, Sep 19
59 °FClear.7 mph88%30.33 "Hg10 mi
7:50 pm59 °FClear.5 mph88%30.33 "Hg10 mi
7:20 pm61 °FClear.10 mph88%30.33 "Hg10 mi
6:50 pm61 °FSunny.8 mph88%30.33 "Hg10 mi
6:20 pm63 °FSunny.10 mph83%30.33 "Hg10 mi
5:50 pm63 °FSunny.13 mph83%30.33 "Hg10 mi
5:20 pm63 °FSunny.10 mph83%30.33 "Hg10 mi
4:50 pm64 °FSunny.10 mph78%30.33 "Hg10 mi
4:20 pm64 °FPassing clouds.10 mph78%30.33 "HgN/A
3:50 pm64 °FPassing clouds.10 mph83%30.36 "HgN/A
3:20 pm66 °FPassing clouds.8 mph78%30.36 "HgN/A
Weather by CustomWeather, © 2019

See weather overview